Time,TemperatureF,DewpointF,PressureIn,WindDirection,WindDirectionDegrees,WindSpeedMPH,WindSpeedGustMPH,Humidity,HourlyPrecipIn,Conditions,Clouds,dailyrainin,SoftwareType,DateUTC
2013-08-02 00:02:00,51.0,44.0,-100.00,SSW,207,8.0,17.0,77,0.00,,,0.00,,2013-08-02 06:02:00,
2013-08-02 00:12:00,51.0,44.0,-100.00,WSW,237,6.0,14.0,78,0.00,,,0.00,,2013-08-02 06:12:00,
2013-08-02 00:32:00,51.0,45.0,-100.00,WNW,297,2.0,11.0,80,0.00,,,0.00,,2013-08-02 06:32:00,
2013-08-02 00:43:00,51.0,45.0,-100.00,SW,228,5.0,12.0,80,0.00,,,0.00,,2013-08-02 06:43:00,
2013-08-02 00:52:00,51.0,45.0,-100.00,SSW,212,7.0,14.0,80,0.00,,,0.00,,2013-08-02 06:52:00,
2013-08-02 01:02:00,50.0,44.0,-100.00,West,276,3.0,11.0,81,0.00,,,0.00,,2013-08-02 07:02:00,
2013-08-02 01:12:00,50.0,44.0,-100.00,WSW,254,5.0,12.0,81,0.00,,,0.00,,2013-08-02 07:12:00,
2013-08-02 01:33:00,50.0,44.0,-100.00,West,259,3.0,12.0,81,0.00,,,0.00,,2013-08-02 07:33:00,
2013-08-02 01:44:00,50.0,44.0,-100.00,SW,214,4.0,13.0,81,0.00,,,0.00,,2013-08-02 07:44:00,
2013-08-02 01:52:00,50.0,44.0,-100.00,SSW,200,4.0,15.0,81,0.00,,,0.00,,2013-08-02 07:52:00,
2013-08-02 02:02:00,50.0,45.0,-100.00,SSW,206,6.0,16.0,82,0.00,,,0.00,,2013-08-02 08:02:00,
2013-08-02 02:12:00,50.0,45.0,-100.00,WNW,283,5.0,17.0,82,0.00,,,0.00,,2013-08-02 08:12:00,
2013-08-02 02:22:00,50.0,45.0,-100.00,SW,236,3.0,15.0,82,0.00,,,0.00,,2013-08-02 08:22:00,
2013-08-02 02:33:00,50.0,45.0,-100.00,West,270,4.0,11.0,83,0.00,,,0.00,,2013-08-02 08:33:00,
2013-08-02 02:43:00,50.0,45.0,-100.00,West,261,3.0,10.0,84,0.00,,,0.00,,2013-08-02 08:43:00,
2013-08-02 02:53:00,49.0,45.0,-100.00,West,272,1.0,10.0,85,0.00,,,0.00,,2013-08-02 08:53:00,
2013-08-02 03:02:00,48.0,46.0,-100.00,West,268,1.0,11.0,94,0.00,,,0.00,,2013-08-02 09:02:00,
2013-08-02 03:12:00,48.0,47.0,-100.00,WSW,247,1.0,7.0,95,0.00,,,0.00,,2013-08-02 09:12:00,
2013-08-02 03:22:00,48.0,47.0,-100.00,WSW,245,0.0,4.0,95,0.00,,,0.00,,2013-08-02 09:22:00,
2013-08-02 03:33:00,48.0,47.0,-100.00,WSW,247,0.0,3.0,96,0.00,,,0.00,,2013-08-02 09:33:00,
2013-08-02 03:43:00,48.0,47.0,-100.00,West,281,0.0,1.0,96,0.00,,,0.00,,2013-08-02 09:43:00,
2013-08-02 03:52:00,48.0,47.0,-100.00,West,279,0.0,2.0,96,0.00,,,0.00,,2013-08-02 09:52:00,
2013-08-02 04:02:00,47.0,46.0,-100.00,WSW,258,0.0,3.0,96,0.00,,,0.00,,2013-08-02 10:02:00,
2013-08-02 04:12:00,47.0,46.0,-100.00,WSW,258,0.0,4.0,96,0.00,,,0.00,,2013-08-02 10:12:00,
2013-08-02 04:23:00,47.0,46.0,-100.00,WSW,239,3.0,4.0,96,0.00,,,0.00,,2013-08-02 10:23:00,
2013-08-02 04:33:00,47.0,46.0,-100.00,SW,226,0.0,6.0,96,0.00,,,0.00,,2013-08-02 10:33:00,
2013-08-02 04:43:00,47.0,46.0,-100.00,SW,226,0.0,0.0,96,0.00,,,0.00,,2013-08-02 10:43:00,
2013-08-02 04:52:00,46.0,45.0,-100.00,NNW,342,2.0,4.0,96,0.00,,,0.00,,2013-08-02 10:52:00,
2013-08-02 05:02:00,46.0,45.0,-100.00,NNW,335,2.0,5.0,96,0.00,,,0.00,,2013-08-02 11:02:00,
2013-08-02 05:11:00,45.0,44.0,-100.00,NW,317,6.0,8.0,96,0.00,,,0.00,,2013-08-02 11:11:00,
2013-08-02 05:32:00,45.0,44.0,-100.00,WNW,296,6.0,10.0,97,0.00,,,0.00,,2013-08-02 11:32:00,
2013-08-02 05:42:00,45.0,44.0,-100.00,WNW,303,3.0,10.0,97,0.00,,,0.00,,2013-08-02 11:42:00,
2013-08-02 05:52:00,45.0,44.0,-100.00,NW,308,7.0,12.0,97,0.00,,,0.00,,2013-08-02 11:52:00,
2013-08-02 06:01:00,45.0,44.0,-100.00,WNW,298,7.0,13.0,97,0.00,,,0.00,,2013-08-02 12:01:00,
2013-08-02 06:11:00,45.0,44.0,-100.00,NW,308,5.0,9.0,97,0.00,,,0.00,,2013-08-02 12:11:00,
2013-08-02 06:32:00,44.0,43.0,-100.00,NW,312,5.0,7.0,97,0.00,,,0.00,,2013-08-02 12:32:00,
2013-08-02 06:42:00,44.0,43.0,-100.00,WNW,290,3.0,9.0,97,0.00,,,0.00,,2013-08-02 12:42:00,
2013-08-02 06:52:00,44.0,43.0,-100.00,WNW,299,3.0,9.0,97,0.00,,,0.00,,2013-08-02 12:52:00,
2013-08-02 07:01:00,44.0,43.0,-100.00,WNW,301,3.0,7.0,97,0.00,,,0.00,,2013-08-02 13:01:00,
2013-08-02 07:11:00,44.0,43.0,-100.00,NW,306,3.0,7.0,98,0.00,,,0.00,,2013-08-02 13:11:00,
2013-08-02 07:22:00,44.0,43.0,-100.00,WNW,300,2.0,7.0,98,0.00,,,0.00,,2013-08-02 13:22:00,
2013-08-02 07:42:00,44.0,43.0,-100.00,NW,307,2.0,7.0,98,0.00,,,0.00,,2013-08-02 13:42:00,
2013-08-02 07:52:00,44.0,43.0,-100.00,WNW,303,2.0,7.0,98,0.00,,,0.00,,2013-08-02 13:52:00,
2013-08-02 08:02:00,44.0,43.0,-100.00,WNW,302,1.0,7.0,98,0.00,,,0.00,,2013-08-02 14:02:00,
2013-08-02 08:22:00,44.0,43.0,-100.00,WNW,299,1.0,9.0,98,0.00,,,0.00,,2013-08-02 14:22:00,
2013-08-02 08:43:00,44.0,43.0,-100.00,WNW,290,1.0,6.0,98,0.00,,,0.00,,2013-08-02 14:43:00,
2013-08-02 08:53:00,44.0,43.0,-100.00,West,262,1.0,8.0,98,0.00,,,0.00,,2013-08-02 14:53:00,
2013-08-02 09:03:00,44.0,43.0,-100.00,WNW,301,1.0,6.0,98,0.00,,,0.00,,2013-08-02 15:03:00,
2013-08-02 09:12:00,44.0,43.0,-100.00,WNW,300,1.0,6.0,98,0.00,,,0.00,,2013-08-02 15:12:00,
2013-08-02 09:32:00,44.0,43.0,-100.00,WNW,299,1.0,7.0,98,0.00,,,0.00,,2013-08-02 15:32:00,
2013-08-02 09:52:00,44.0,43.0,-100.00,WNW,289,1.0,6.0,98,0.00,,,0.00,,2013-08-02 15:52:00,
2013-08-02 10:01:00,44.0,43.0,-100.00,WNW,293,1.0,5.0,98,0.00,,,0.00,,2013-08-02 16:01:00,
2013-08-02 10:11:00,44.0,43.0,-100.00,WNW,291,1.0,5.0,98,0.00,,,0.00,,2013-08-02 16:11:00,
2013-08-02 10:32:00,44.0,43.0,-100.00,WNW,298,1.0,5.0,98,0.00,,,0.00,,2013-08-02 16:32:00,
2013-08-02 10:42:00,44.0,43.0,-100.00,WNW,301,1.0,4.0,98,0.00,,,0.00,,2013-08-02 16:42:00,
2013-08-02 10:52:00,44.0,43.0,-100.00,WNW,291,1.0,4.0,98,0.00,,,0.00,,2013-08-02 16:52:00,
2013-08-02 11:02:00,44.0,43.0,-100.00,WNW,292,2.0,5.0,98,0.00,,,0.00,,2013-08-02 17:02:00,
2013-08-02 11:11:00,44.0,43.0,-100.00,WNW,288,0.0,5.0,98,0.00,,,0.00,,2013-08-02 17:11:00,
2013-08-02 11:22:00,44.0,43.0,-100.00,WNW,289,1.0,5.0,98,0.00,,,0.00,,2013-08-02 17:22:00,
2013-08-02 11:34:00,45.0,44.0,-100.00,WNW,291,1.0,5.0,98,0.00,,,0.00,,2013-08-02 17:34:00,
2013-08-02 11:43:00,45.0,44.0,-100.00,West,272,0.0,5.0,98,0.00,,,0.00,,2013-08-02 17:43:00,
2013-08-02 11:52:00,45.0,44.0,-100.00,West,271,0.0,5.0,98,0.00,,,0.00,,2013-08-02 17:52:00,
2013-08-02 12:01:00,44.0,43.0,-100.00,WNW,288,2.0,4.0,98,0.00,,,0.00,,2013-08-02 18:01:00,
2013-08-02 12:11:00,44.0,43.0,-100.00,WNW,288,0.0,4.0,98,0.00,,,0.00,,2013-08-02 18:11:00,
2013-08-02 12:32:00,45.0,44.0,-100.00,WNW,289,0.0,3.0,98,0.00,,,0.00,,2013-08-02 18:32:00,
2013-08-02 12:52:00,45.0,44.0,-100.00,WNW,289,0.0,4.0,98,0.00,,,0.00,,2013-08-02 18:52:00,
2013-08-02 13:43:00,45.0,45.0,-100.00,WNW,300,0.0,5.0,99,0.00,,,0.00,,2013-08-02 19:43:00,
2013-08-02 13:52:00,45.0,44.0,-100.00,WNW,298,3.0,5.0,98,0.00,,,0.00,,2013-08-02 19:52:00,
2013-08-02 14:02:00,45.0,45.0,-100.00,WNW,291,3.0,7.0,99,0.00,,,0.00,,2013-08-02 20:02:00,
2013-08-02 14:12:00,45.0,44.0,-100.00,WNW,291,0.0,7.0,98,0.00,,,0.00,,2013-08-02 20:12:00,
2013-08-02 14:32:00,45.0,44.0,-100.00,WNW,286,0.0,5.0,98,0.00,,,0.00,,2013-08-02 20:32:00,
2013-08-02 14:43:00,46.0,46.0,-100.00,WSW,256,1.0,5.0,99,0.00,,,0.00,,2013-08-02 20:43:00,
2013-08-02 14:52:00,46.0,46.0,-100.00,WSW,253,1.0,4.0,99,0.00,,,0.00,,2013-08-02 20:52:00,
2013-08-02 15:02:00,45.0,45.0,-100.00,West,277,4.0,7.0,99,0.00,,,0.00,,2013-08-02 21:02:00,
2013-08-02 15:11:00,45.0,45.0,-100.00,West,281,0.0,6.0,99,0.00,,,0.00,,2013-08-02 21:11:00,
2013-08-02 15:32:00,46.0,46.0,-100.00,WNW,283,0.0,1.0,99,0.00,,,0.00,,2013-08-02 21:32:00,
2013-08-02 15:43:00,46.0,46.0,-100.00,West,269,2.0,6.0,99,0.00,,,0.00,,2013-08-02 21:43:00,
2013-08-02 15:52:00,46.0,46.0,-100.00,WNW,287,2.0,7.0,99,0.00,,,0.00,,2013-08-02 21:52:00,
2013-08-02 16:01:00,46.0,46.0,-100.00,SW,235,1.0,6.0,99,0.00,,,0.00,,2013-08-02 22:01:00,
2013-08-02 16:32:00,46.0,46.0,-100.00,West,268,1.0,4.0,99,0.00,,,0.00,,2013-08-02 22:32:00,
2013-08-02 16:52:00,46.0,46.0,-100.00,WNW,283,0.0,5.0,99,0.00,,,0.00,,2013-08-02 22:52:00,
2013-08-02 17:01:00,46.0,46.0,-100.00,West,278,1.0,4.0,99,0.00,,,0.00,,2013-08-02 23:01:00,
2013-08-02 17:11:00,46.0,46.0,-100.00,WNW,286,0.0,4.0,99,0.00,,,0.00,,2013-08-02 23:11:00,
2013-08-02 17:43:00,46.0,46.0,-100.00,WNW,297,0.0,4.0,99,0.00,,,0.00,,2013-08-02 23:43:00,
2013-08-02 17:53:00,46.0,46.0,-100.00,West,269,0.0,4.0,99,0.00,,,0.00,,2013-08-02 23:53:00,
2013-08-02 18:02:00,46.0,46.0,-100.00,West,266,1.0,6.0,99,0.00,,,0.00,,2013-08-03 00:02:00,
2013-08-02 18:52:00,46.0,46.0,-100.00,WNW,291,2.0,7.0,99,0.00,,,0.00,,2013-08-03 00:52:00,
2013-08-02 19:02:00,46.0,46.0,-100.00,WNW,292,3.0,9.0,99,0.00,,,0.00,,2013-08-03 01:02:00,
2013-08-02 19:42:00,46.0,46.0,-100.00,West,266,0.0,6.0,99,0.00,,,0.00,,2013-08-03 01:42:00,
2013-08-02 20:02:00,46.0,46.0,-100.00,WNW,286,0.0,3.0,99,0.00,,,0.00,,2013-08-03 02:02:00,
2013-08-02 20:32:00,46.0,46.0,-100.00,WNW,285,0.0,4.0,99,0.00,,,0.00,,2013-08-03 02:32:00,
2013-08-02 20:43:00,46.0,46.0,-100.00,West,276,2.0,8.0,99,0.00,,,0.00,,2013-08-03 02:43:00,
2013-08-02 20:52:00,46.0,46.0,-100.00,WSW,243,1.0,8.0,99,0.00,,,0.00,,2013-08-03 02:52:00,
2013-08-02 21:43:00,45.0,45.0,-100.00,WNW,285,1.0,5.0,99,0.00,,,0.00,,2013-08-03 03:43:00,
2013-08-02 21:53:00,45.0,45.0,-100.00,West,280,3.0,6.0,99,0.00,,,0.00,,2013-08-03 03:53:00,
2013-08-02 22:01:00,45.0,45.0,-100.00,WNW,299,1.0,4.0,99,0.00,,,0.00,,2013-08-03 04:01:00,
2013-08-02 22:11:00,45.0,45.0,-100.00,West,272,1.0,4.0,99,0.00,,,0.00,,2013-08-03 04:11:00,
2013-08-02 23:02:00,45.0,45.0,-100.00,West,280,1.0,6.0,99,0.00,,,0.00,,2013-08-03 05:02:00,
2013-08-02 23:21:00,45.0,45.0,-100.00,WNW,288,0.0,4.0,99,0.00,,,0.00,,2013-08-03 05:21:00,
2013-08-02 23:32:00,45.0,45.0,-100.00,WNW,291,0.0,4.0,99,0.00,,,0.00,,2013-08-03 05:32:00,